Showing default

SES 22, 52933

Orbit data source: Space-Track

SES 22, 52933 is a payload satellite owned by SES (LU) in GEO that was launched on Wed, 29 Jun 2022 UTC via an FALCON 9 launch vehicle from the Air Force Eastern Test Range (AFETR). Payload-class satellites include a variety of spacecraft equipped with specific instruments for various scientific and technological missions. These include communications satellites like Starlink; space stations such as the ISS; scientific satellites like the Hubble; Earth observation satellites from companies like Planet Labs, Umbra, and HawkEye 360; GPS; miniature CubeSats for education and research; and military/defense satellites.

Loading next visibility...
Identifier
52933, 2022-071A
Orbit
GEO
Country
Flag of LULU / SES
Related business
Manufacturer
Thales Alenia
Mission
Operational Commercial Communications
Bus & Motor
SPACEBUS 4000B2, S400
Mass
3,500 kg wet, ~2,000 kg dry
Launch date (UTC)
2022-06-29 (3 years ago)
Launch vehicle
FALCON 9
Launch site
Air Force Eastern Test Range (AFETR)
Object type
Payload
Rocket body
Debris
Shape & HBR
Box + 2 Pan, 15.0 m
Radar Cross Section
48.465 m², Large (>1 m²)

Expand to show TLE details & history
Last TLE update: 23 hours ago

TLE from 23 hours ago
0 SES 22
1 52933U 22071A   25305.58295718  .00000000  00000-0  00000-0 0  9994
2 52933   0.0143 267.5796 0001242 322.4447 241.9459  1.00268988  5246
Epoch: 2025-11-01T13:59Z
TLE epoch observation values (Epoch: 2025-11-01T13:59:27.500Z)
Latitude
-0.01908°
Longitude
-139.05608°
Altitude
35,789.338 km
Speed
3.075 km/s
True Right ascension
07h 27m 40s
True Declination
0° 01' 09"
Sunlit
Object was in daylight at epoch
Visualization orbit readout
Latitude
Unknown
Longitude
Unknown
Altitude
Unknown
Speed
Unknown
Apparent Right ascension
Unknown
Apparent Declination
Unknown
Sunlit
N/A
Visualization observer readout
Local Sidereal Time
08:51:52
Azimuth
Unknown
Elevation
Unknown
Doppler factor
Unknown
Orbital elements
Apogee altitude
35,793.687 km
Perigee altitude
35,783.212 km
Semi-major axis
42,166.586 km
Eccentricity
0.00012
Inclination
0.0143°
RAAN
267.5796°
Arg. of periapsis
322.4447°
True anomaly
241.93334°
Mean anomaly
241.9459°
Eccentric anomaly
241.93962°
Mean motion
0.25066 °/min
Orbital period
1,436.19 mins
BSTAR
0
Loading maneuver chart data...
Computing Atmospheric mass density...
Loading historical data...
Loading historical data...
Loading historical data...
Loading historical data...
Loading historical data...
Loading historical data...
Loading historical data...
Other satellites on launch #71 in the year 2022 (2022-06-29 UTC)

Documentation

Showing up to 5 results
|